| time (UTC) | temp C | wind direction | speed KPH | gust KPH | rain 1hr cm | rain 24hr cm | rain mn cm | humidity % | barometer mb |
| 20260906011505 | 15 | 70 | 3.2 | 6.4 | 0.00 | 0.23 | 0.00 | 78 | 1026.7 |
| 20260906011006 | 15 | 63 | 4.8 | 8.0 | 0.00 | 0.23 | 0.00 | 78 | 1026.5 |
| 20260906010505 | 15 | 58 | 4.8 | 8.0 | 0.00 | 0.23 | 0.00 | 79 | 1026.3 |
| 20260906010005 | 15 | 55 | 4.8 | 8.0 | 0.00 | 0.23 | 0.00 | 79 | 1026.6 |
| 20260906005505 | 15 | 54 | 4.8 | 9.7 | 0.00 | 0.23 | 0.00 | 79 | 1026.6 |
| 20260906005005 | 15 | 51 | 4.8 | 9.7 | 0.00 | 0.23 | 0.00 | 78 | 1026.8 |
| 20260906004505 | 15 | 49 | 6.4 | 9.7 | 0.00 | 0.23 | 0.00 | 77 | 1026.9 |
| 20260906004005 | 15 | 52 | 6.4 | 11.3 | 0.00 | 0.23 | 0.00 | 80 | 1027.0 |
| 20260906003505 | 15 | 51 | 4.8 | 11.3 | 0.00 | 0.23 | 0.00 | 80 | 1026.8 |
| 20260906003005 | 15 | 50 | 4.8 | 9.7 | 0.00 | 0.23 | 0.00 | 80 | 1026.7 |
| 20260906002505 | 15 | 47 | 4.8 | 9.7 | 0.00 | 0.23 | 0.00 | 81 | 1026.7 |
| 20260906002004 | 15 | 37 | 4.8 | 6.4 | 0.00 | 0.23 | 0.00 | 81 | 1027.0 |
| 20260906001505 | 15 | 38 | 4.8 | 8.0 | 0.00 | 0.23 | 0.00 | 81 | 1026.9 |
| 20260906000505 | 16 | 35 | 4.8 | 9.7 | 0.00 | 0.23 | 0.00 | 81 | 1027.1 |
| 20260905235504 | 16 | 40 | 6.4 | 9.7 | 0.00 | 0.23 | 0.00 | 81 | 1027.0 |
| 20260905235005 | 16 | 42 | 6.4 | 9.7 | 0.00 | 0.23 | 0.00 | 81 | 1027.2 |
| 20260905234505 | 16 | 41 | 6.4 | 8.0 | 0.00 | 0.23 | 0.00 | 81 | 1027.0 |
| 20260905234004 | 16 | 43 | 6.4 | 8.0 | 0.00 | 0.23 | 0.00 | 81 | 1027.1 |
| 20260905233504 | 16 | 44 | 6.4 | 12.9 | 0.00 | 0.23 | 0.00 | 81 | 1027.1 |
| 20260905233005 | 16 | 45 | 6.4 | 12.9 | 0.00 | 0.23 | 0.00 | 81 | 1027.2 |
| 20260905232504 | 16 | 46 | 6.4 | 9.7 | 0.00 | 0.23 | 0.00 | 81 | 1027.1 |
| 20260905232005 | 16 | 51 | 6.4 | 9.7 | 0.00 | 0.23 | 0.00 | 81 | 1027.3 |
| 20260905231006 | 16 | 53 | 6.4 | 9.7 | 0.00 | 0.23 | 0.00 | 81 | 1027.1 |
| 20260905230505 | 16 | 51 | 6.4 | 9.7 | 0.00 | 0.23 | 0.00 | 81 | 1027.2 |
| 20260905225506 | 16 | 46 | 4.8 | 6.4 | 0.00 | 0.23 | 0.00 | 80 | 1027.3 |
| 20260905225005 | 16 | 49 | 4.8 | 6.4 | 0.00 | 0.23 | 0.00 | 79 | 1027.0 |
| 20260905224505 | 16 | 50 | 4.8 | 6.4 | 0.00 | 0.23 | 0.00 | 79 | 1027.0 |
| 20260905223505 | 16 | 50 | 4.8 | 8.0 | 0.00 | 0.23 | 0.00 | 78 | 1026.9 |
| 20260905223004 | 16 | 53 | 4.8 | 8.0 | 0.00 | 0.23 | 0.00 | 78 | 1027.0 |
| 20260905222505 | 16 | 57 | 4.8 | 8.0 | 0.00 | 0.23 | 0.00 | 78 | 1027.0 |
| 20260905222005 | 16 | 54 | 6.4 | 9.7 | 0.00 | 0.23 | 0.00 | 77 | 1027.1 |
| 20260905221505 | 16 | 55 | 6.4 | 9.7 | 0.00 | 0.23 | 0.00 | 77 | 1027.1 |
| 20260905221005 | 16 | 57 | 6.4 | 12.9 | 0.00 | 0.23 | 0.00 | 76 | 1027.2 |
| 20260905220505 | 16 | 54 | 6.4 | 12.9 | 0.00 | 0.23 | 0.00 | 76 | 1027.2 |
| 20260905220007 | 17 | 53 | 6.4 | 12.9 | 0.00 | 0.23 | 0.00 | 75 | 1027.3 |
| 20260905215505 | 17 | 59 | 4.8 | 8.0 | 0.00 | 0.23 | 0.23 | 75 | 1027.3 |
| 20260905215004 | 17 | 68 | 6.4 | 9.7 | 0.00 | 0.23 | 0.23 | 75 | 1027.5 |
| 20260905214505 | 17 | 71 | 3.2 | 9.7 | 0.00 | 0.23 | 0.23 | 74 | 1027.3 |
| 20260905213005 | 17 | 71 | 4.8 | 11.3 | 0.00 | 0.23 | 0.23 | 71 | 1027.2 |
| 20260905212504 | 17 | 61 | 6.4 | 11.3 | 0.00 | 0.23 | 0.23 | 71 | 1027.2 |
| 20260905212005 | 17 | 50 | 6.4 | 9.7 | 0.00 | 0.23 | 0.23 | 72 | 1026.8 |
| 20260905211507 | 17 | 46 | 6.4 | 9.7 | 0.00 | 0.23 | 0.23 | 73 | 1026.8 |
| 20260905210505 | 17 | 42 | 3.2 | 6.4 | 0.00 | 0.23 | 0.23 | 73 | 1026.8 |
| 20260905210005 | 17 | 31 | 3.2 | 6.4 | 0.00 | 0.23 | 0.23 | 73 | 1026.8 |
| 20260905205005 | 17 | 20 | 4.8 | 8.0 | 0.00 | 0.23 | 0.23 | 73 | 1026.9 |
| 20260905203505 | 17 | 8 | 4.8 | 9.7 | 0.00 | 0.23 | 0.23 | 74 | 1027.0 |
| 20260905203004 | 17 | 9 | 6.4 | 9.7 | 0.00 | 0.23 | 0.23 | 74 | 1026.8 |
| 20260905202005 | 17 | 11 | 6.4 | 8.0 | 0.00 | 0.23 | 0.23 | 74 | 1026.9 |
| 20260905201506 | 17 | 14 | 6.4 | 9.7 | 0.00 | 0.23 | 0.23 | 73 | 1026.8 |
| 20260905201004 | 17 | 18 | 6.4 | 9.7 | 0.00 | 0.23 | 0.23 | 73 | 1026.9 |
| 20260905200505 | 17 | 16 | 6.4 | 9.7 | 0.00 | 0.23 | 0.23 | 71 | 1026.9 |
| 20260905200006 | 17 | 12 | 4.8 | 9.7 | 0.00 | 0.23 | 0.23 | 70 | 1026.7 |
| 20260905195504 | 17 | 7 | 6.4 | 9.7 | 0.00 | 0.23 | 0.23 | 70 | 1026.6 |
| 20260905195005 | 17 | 5 | 6.4 | 9.7 | 0.00 | 0.23 | 0.23 | 70 | 1026.6 |
| 20260905194505 | 17 | 7 | 6.4 | 9.7 | 0.00 | 0.23 | 0.23 | 71 | 1026.6 |
| 20260905194004 | 17 | 5 | 4.8 | 8.0 | 0.00 | 0.23 | 0.23 | 72 | 1026.5 |
| 20260905192505 | 18 | 9 | 4.8 | 9.7 | 0.00 | 0.23 | 0.23 | 71 | 1026.5 |
| 20260905192005 | 18 | 8 | 4.8 | 9.7 | 0.00 | 0.23 | 0.23 | 72 | 1026.6 |
| 20260905191505 | 18 | 6 | 4.8 | 8.0 | 0.00 | 0.23 | 0.23 | 72 | 1026.4 |
| 20260905191006 | 18 | 7 | 4.8 | 9.7 | 0.00 | 0.23 | 0.23 | 72 | 1026.5 |
| 20260905190504 | 18 | 7 | 6.4 | 9.7 | 0.00 | 0.23 | 0.23 | 72 | 1026.5 |
| 20260905190005 | 18 | 10 | 6.4 | 9.7 | 0.00 | 0.23 | 0.23 | 72 | 1026.4 |
| 20260905185505 | 18 | 13 | 4.8 | 8.0 | 0.00 | 0.23 | 0.23 | 72 | 1026.3 |
| 20260905185005 | 18 | 14 | 4.8 | 11.3 | 0.00 | 0.23 | 0.23 | 72 | 1026.3 |
| 20260905184505 | 18 | 11 | 6.4 | 11.3 | 0.00 | 0.23 | 0.23 | 72 | 1026.3 |
| 20260905183505 | 18 | 6 | 4.8 | 8.0 | 0.00 | 0.23 | 0.23 | 73 | 1026.3 |
| 20260905183005 | 18 | 5 | 6.4 | 9.7 | 0.00 | 0.23 | 0.23 | 72 | 1026.3 |
| 20260905182505 | 18 | 7 | 6.4 | 9.7 | 0.00 | 0.23 | 0.23 | 72 | 1026.0 |
| 20260905182005 | 18 | 7 | 6.4 | 8.0 | 0.00 | 0.23 | 0.23 | 72 | 1026.0 |
| 20260905181005 | 19 | 6 | 6.4 | 9.7 | 0.00 | 0.23 | 0.23 | 72 | 1026.0 |
| 20260905175005 | 20 | 28 | 6.4 | 9.7 | 0.00 | 0.23 | 0.23 | 71 | 1026.0 |
| 20260905174505 | 20 | 30 | 6.4 | 9.7 | 0.00 | 0.23 | 0.23 | 69 | 1025.8 |
| 20260905174006 | 21 | 38 | 6.4 | 11.3 | 0.00 | 0.23 | 0.23 | 68 | 1025.9 |
| 20260905173504 | 21 | 33 | 6.4 | 11.3 | 0.00 | 0.23 | 0.23 | 68 | 1025.9 |
| 20260905173005 | 21 | 28 | 6.4 | 9.7 | 0.00 | 0.23 | 0.23 | 67 | 1025.8 |
| 20260905172505 | 21 | 14 | 4.8 | 9.7 | 0.00 | 0.23 | 0.23 | 66 | 1026.0 |
| 20260905172005 | 22 | 330 | 4.8 | 8.0 | 0.00 | 0.23 | 0.23 | 63 | 1025.8 |
| 20260905171505 | 23 | 234 | 4.8 | 8.0 | 0.00 | 0.23 | 0.23 | 61 | 1025.6 |
| 20260905171004 | 23 | 235 | 3.2 | 8.0 | 0.00 | 0.23 | 0.23 | 61 | 1025.7 |
| 20260905170506 | 23 | 236 | 3.2 | 6.4 | 0.00 | 0.23 | 0.23 | 59 | 1025.6 |
| 20260905170005 | 23 | 246 | 3.2 | 8.0 | 0.00 | 0.23 | 0.23 | 59 | 1025.8 |
| 20260905165504 | 24 | 236 | 4.8 | 8.0 | 0.00 | 0.23 | 0.23 | 58 | 1025.7 |
| 20260905165004 | 24 | 245 | 4.8 | 8.0 | 0.00 | 0.23 | 0.23 | 58 | 1025.6 |
| 20260905164504 | 24 | 247 | 3.2 | 8.0 | 0.00 | 0.23 | 0.23 | 57 | 1025.7 |
| 20260905164006 | 25 | 241 | 3.2 | 6.4 | 0.00 | 0.23 | 0.23 | 56 | 1025.5 |
| 20260905163504 | 25 | 236 | 3.2 | 9.7 | 0.00 | 0.23 | 0.23 | 56 | 1025.8 |
| 20260905163005 | 24 | 232 | 4.8 | 9.7 | 0.00 | 0.23 | 0.23 | 57 | 1025.6 |
| 20260905162505 | 24 | 242 | 6.4 | 12.9 | 0.00 | 0.23 | 0.23 | 57 | 1025.6 |
| 20260905162005 | 24 | 246 | 6.4 | 12.9 | 0.00 | 0.23 | 0.23 | 57 | 1025.5 |
| 20260905161005 | 24 | 244 | 6.4 | 12.9 | 0.00 | 0.23 | 0.23 | 60 | 1025.6 |
| 20260905160506 | 24 | 260 | 6.4 | 12.9 | 0.00 | 0.23 | 0.23 | 61 | 1025.5 |
| 20260905160005 | 23 | 267 | 6.4 | 11.3 | 0.00 | 0.23 | 0.23 | 61 | 1025.6 |
| 20260905155505 | 23 | 265 | 6.4 | 11.3 | 0.00 | 0.23 | 0.23 | 60 | 1025.6 |
| 20260905154504 | 24 | 239 | 4.8 | 12.9 | 0.00 | 0.23 | 0.23 | 62 | 1025.6 |
| 20260905153505 | 23 | 223 | 6.4 | 12.9 | 0.00 | 0.23 | 0.23 | 63 | 1025.6 |
| 20260905153004 | 23 | 214 | 6.4 | 12.9 | 0.00 | 0.23 | 0.23 | 62 | 1025.8 |
| 20260905152505 | 23 | 210 | 6.4 | 11.3 | 0.00 | 0.23 | 0.23 | 63 | 1025.7 |
| 20260905151504 | 23 | 212 | 6.4 | 14.5 | 0.00 | 0.23 | 0.23 | 63 | 1025.7 |
| 20260905150504 | 23 | 214 | 8.0 | 12.9 | 0.00 | 0.20 | 0.23 | 63 | 1025.8 |
| 20260905150005 | 23 | 215 | 6.4 | 11.3 | 0.00 | 0.20 | 0.23 | 62 | 1025.6 |
| 20260905145505 | 23 | 213 | 6.4 | 12.9 | 0.00 | 0.20 | 0.23 | 63 | 1025.7 |
| 20260905145004 | 23 | 220 | 6.4 | 12.9 | 0.00 | 0.20 | 0.23 | 63 | 1025.8 |
| 20260905144504 | 23 | 233 | 4.8 | 9.7 | 0.00 | 0.20 | 0.23 | 63 | 1025.7 |
| 20260905143505 | 22 | 228 | 6.4 | 12.9 | 0.00 | 0.20 | 0.23 | 63 | 1025.6 |
| 20260905143005 | 22 | 251 | 8.0 | 16.1 | 0.00 | 0.20 | 0.23 | 63 | 1025.7 |
| 20260905142005 | 22 | 252 | 6.4 | 16.1 | 0.00 | 0.20 | 0.23 | 63 | 1025.9 |
| 20260905141504 | 22 | 236 | 6.4 | 12.9 | 0.00 | 0.20 | 0.23 | 63 | 1025.7 |
| 20260905141004 | 22 | 238 | 6.4 | 14.5 | 0.00 | 0.20 | 0.23 | 64 | 1025.9 |
| 20260905140505 | 22 | 250 | 4.8 | 14.5 | 0.00 | 0.20 | 0.23 | 68 | 1025.9 |
| 20260905140005 | 22 | 244 | 4.8 | 11.3 | 0.00 | 0.20 | 0.23 | 68 | 1025.8 |
| 20260905134504 | 22 | 247 | 8.0 | 14.5 | 0.00 | 0.20 | 0.23 | 72 | 1025.9 |
| 20260905134005 | 21 | 255 | 6.4 | 11.3 | 0.00 | 0.20 | 0.23 | 72 | 1026.0 |
| 20260905133505 | 21 | 256 | 4.8 | 11.3 | 0.00 | 0.20 | 0.23 | 72 | 1026.0 |
| 20260905131505 | 20 | 273 | 4.8 | 12.9 | 0.00 | 0.20 | 0.23 | 76 | 1026.0 |
| 20260905131005 | 20 | 256 | 4.8 | 12.9 | 0.00 | 0.20 | 0.23 | 77 | 1025.9 |
| 20260905130505 | 20 | 223 | 3.2 | 9.7 | 0.00 | 0.20 | 0.23 | 78 | 1025.8 |
| 20260905130004 | 20 | 218 | 4.8 | 16.1 | 0.00 | 0.20 | 0.23 | 77 | 1025.8 |
| 20260905125505 | 20 | 217 | 6.4 | 16.1 | 0.00 | 0.20 | 0.23 | 76 | 1025.9 |
| 20260905125005 | 20 | 212 | 4.8 | 11.3 | 0.00 | 0.20 | 0.23 | 76 | 1025.9 |
| 20260905124504 | 20 | 207 | 6.4 | 11.3 | 0.00 | 0.20 | 0.23 | 77 | 1026.0 |
| 20260905124004 | 20 | 215 | 8.0 | 14.5 | 0.00 | 0.20 | 0.23 | 75 | 1026.0 |
| 20260905123505 | 20 | 233 | 4.8 | 14.5 | 0.00 | 0.20 | 0.23 | 75 | 1026.0 |
| 20260905123005 | 20 | 252 | 3.2 | 8.0 | 0.00 | 0.20 | 0.23 | 76 | 1026.0 |
| 20260905121504 | 20 | 227 | 3.2 | 8.0 | 0.03 | 0.20 | 0.23 | 76 | 1026.1 |
| 20260905121005 | 20 | 242 | 3.2 | 11.3 | 0.05 | 0.20 | 0.23 | 76 | 1026.2 |
| 20260905120505 | 20 | 316 | 4.8 | 11.3 | 0.05 | 0.20 | 0.23 | 75 | 1026.0 |
| 20260905120005 | 20 | 111 | 4.8 | 11.3 | 0.05 | 0.20 | 0.23 | 79 | 1026.0 |
| 20260905115504 | 20 | 52 | 1.6 | 8.0 | 0.05 | 0.20 | 0.23 | 81 | 1026.0 |
| 20260905114505 | 20 | 59 | 3.2 | 8.0 | 0.08 | 0.20 | 0.23 | 81 | 1026.0 |
| 20260905114005 | 20 | 73 | 1.6 | 8.0 | 0.08 | 0.20 | 0.23 | 82 | 1025.8 |
| 20260905113504 | 20 | 84 | 1.6 | 4.8 | 0.08 | 0.20 | 0.23 | 83 | 1025.9 |
| 20260905113006 | 20 | 90 | 3.2 | 6.4 | 0.10 | 0.20 | 0.23 | 82 | 1025.9 |
| 20260905112504 | 20 | 98 | 3.2 | 6.4 | 0.10 | 0.20 | 0.23 | 81 | 1026.0 |
| 20260905112004 | 20 | 106 | 1.6 | 6.4 | 0.10 | 0.20 | 0.23 | 81 | 1025.9 |
| 20260905111505 | 20 | 99 | 1.6 | 3.2 | 0.10 | 0.20 | 0.20 | 82 | 1026.1 |
| 20260905111005 | 20 | 107 | 1.6 | 4.8 | 0.10 | 0.18 | 0.18 | 82 | 1026.2 |
| 20260905110504 | 20 | 76 | 3.2 | 4.8 | 0.10 | 0.18 | 0.18 | 83 | 1026.1 |
| 20260905110004 | 20 | 49 | 3.2 | 4.8 | 0.10 | 0.15 | 0.18 | 83 | 1026.1 |
| 20260905105505 | 20 | 36 | 3.2 | 6.4 | 0.10 | 0.15 | 0.18 | 82 | 1026.0 |
| 20260905105004 | 19 | 21 | 3.2 | 9.7 | 0.10 | 0.15 | 0.15 | 82 | 1025.9 |
| 20260905104504 | 19 | 7 | 4.8 | 9.7 | 0.10 | 0.13 | 0.15 | 82 | 1026.0 |
| 20260905104005 | 19 | 7 | 4.8 | 9.7 | 0.10 | 0.13 | 0.15 | 81 | 1025.8 |
| 20260905103505 | 19 | 50 | 3.2 | 9.7 | 0.10 | 0.13 | 0.15 | 81 | 1025.8 |
| 20260905103005 | 19 | 136 | 3.2 | 3.2 | 0.10 | 0.10 | 0.13 | 79 | 1025.7 |
| 20260905102505 | 20 | 211 | 1.6 | 3.2 | 0.08 | 0.10 | 0.13 | 79 | 1025.8 |
| 20260905102004 | 20 | 222 | 1.6 | 3.2 | 0.08 | 0.10 | 0.10 | 79 | 1025.8 |
| 20260905101505 | 20 | 234 | 1.6 | 3.2 | 0.05 | 0.08 | 0.10 | 79 | 1025.8 |
| 20260905101005 | 20 | 245 | 3.2 | 6.4 | 0.05 | 0.08 | 0.10 | 80 | 1025.8 |
| 20260905100005 | 20 | 259 | 6.4 | 11.3 | 0.05 | 0.05 | 0.08 | 81 | 1025.8 |
| 20260905095504 | 21 | 261 | 6.4 | 12.9 | 0.03 | 0.05 | 0.08 | 81 | 1025.7 |
| 20260905095005 | 21 | 267 | 6.4 | 12.9 | 0.00 | 0.03 | 0.05 | 80 | 1025.5 |
| 20260905094004 | 21 | 277 | 0.0 | 0.0 | 0.00 | 0.03 | 0.05 | 78 | 1025.1 |
| 20260905093504 | 21 | 253 | 0.0 | 0.0 | 0.00 | 0.03 | 0.05 | 78 | 1025.0 |
| 20260905093004 | 21 | 253 | 0.0 | 3.2 | 0.00 | 0.03 | 0.05 | 77 | 1024.9 |
| 20260905092504 | 21 | 253 | 0.0 | 3.2 | 0.00 | 0.03 | 0.05 | 76 | 1025.0 |
| 20260905092004 | 21 | 254 | 0.0 | 3.2 | 0.00 | 0.03 | 0.05 | 76 | 1025.0 |
| 20260905091504 | 21 | 252 | 1.6 | 6.4 | 0.00 | 0.03 | 0.05 | 76 | 1025.0 |
| 20260905091005 | 21 | 246 | 1.6 | 6.4 | 0.00 | 0.03 | 0.05 | 76 | 1024.9 |
| 20260905090504 | 21 | 255 | 1.6 | 6.4 | 0.00 | 0.03 | 0.05 | 75 | 1024.9 |
| 20260905090005 | 21 | 46 | 0.0 | 0.0 | 0.00 | 0.03 | 0.05 | 75 | 1024.8 |
| 20260905085505 | 21 | 46 | 0.0 | 0.0 | 0.00 | 0.03 | 0.05 | 76 | 1024.6 |
| 20260905085004 | 21 | 131 | 0.0 | 0.0 | 0.00 | 0.03 | 0.05 | 77 | 1024.4 |
| 20260905084504 | 21 | 163 | 0.0 | 1.6 | 0.00 | 0.03 | 0.05 | 77 | 1024.6 |
| 20260905084004 | 21 | 254 | 0.0 | 1.6 | 0.00 | 0.03 | 0.05 | 77 | 1024.4 |
| 20260905083504 | 21 | 252 | 0.0 | 1.6 | 0.00 | 0.03 | 0.05 | 77 | 1024.6 |
| 20260905083005 | 21 | 249 | 0.0 | 1.6 | 0.00 | 0.03 | 0.05 | 76 | 1024.6 |
| 20260905082504 | 21 | 250 | 0.0 | 1.6 | 0.00 | 0.03 | 0.05 | 77 | 1024.5 |
| 20260905082005 | 21 | 251 | 1.6 | 4.8 | 0.00 | 0.03 | 0.05 | 77 | 1024.5 |
| 20260905081504 | 20 | 257 | 1.6 | 4.8 | 0.00 | 0.03 | 0.05 | 78 | 1024.4 |
| 20260905081005 | 20 | 252 | 0.0 | 3.2 | 0.00 | 0.03 | 0.05 | 79 | 1024.4 |
| 20260905080505 | 20 | 251 | 0.0 | 3.2 | 0.00 | 0.03 | 0.05 | 78 | 1024.3 |
| 20260905080004 | 20 | 259 | 0.0 | 3.2 | 0.00 | 0.03 | 0.05 | 79 | 1024.2 |
| 20260905075004 | 20 | 20 | 0.0 | 1.6 | 0.00 | 0.03 | 0.05 | 80 | 1024.1 |
| 20260905074504 | 20 | 10 | 0.0 | 1.6 | 0.00 | 0.03 | 0.05 | 81 | 1024.0 |
| 20260905074005 | 20 | 6 | 0.0 | 0.0 | 0.00 | 0.03 | 0.05 | 81 | 1024.0 |
| 20260905073504 | 20 | 14 | 0.0 | 0.0 | 0.00 | 0.03 | 0.05 | 81 | 1024.0 |
| 20260905073004 | 19 | 39 | 0.0 | 1.6 | 0.00 | 0.03 | 0.05 | 81 | 1023.8 |
| 20260905072504 | 19 | 27 | 0.0 | 3.2 | 0.00 | 0.03 | 0.05 | 81 | 1023.9 |
| 20260905071504 | 19 | 122 | 0.0 | 1.6 | 0.00 | 0.03 | 0.05 | 82 | 1023.8 |
| 20260905071004 | 19 | 160 | 0.0 | 3.2 | 0.00 | 0.03 | 0.05 | 82 | 1023.8 |
| 20260905070505 | 19 | 178 | 0.0 | 3.2 | 0.00 | 0.03 | 0.05 | 82 | 1023.7 |
| 20260905070005 | 19 | 204 | 0.0 | 3.2 | 0.00 | 0.03 | 0.05 | 82 | 1023.5 |
| 20260905065505 | 19 | 211 | 0.0 | 3.2 | 0.00 | 0.03 | 0.05 | 83 | 1023.4 |
| 20260905065004 | 19 | 208 | 1.6 | 6.4 | 0.00 | 0.03 | 0.05 | 83 | 1023.5 |
| 20260905064005 | 19 | 28 | 1.6 | 4.8 | 0.00 | 0.03 | 0.05 | 86 | 1023.4 |
| 20260905063505 | 19 | 43 | 1.6 | 4.8 | 0.00 | 0.03 | 0.05 | 86 | 1023.5 |
| 20260905063006 | 19 | 29 | 1.6 | 4.8 | 0.00 | 0.03 | 0.05 | 86 | 1023.4 |
| 20260905062504 | 18 | 31 | 3.2 | 4.8 | 0.00 | 0.03 | 0.05 | 86 | 1023.2 |
| 20260905062004 | 18 | 27 | 3.2 | 4.8 | 0.00 | 0.03 | 0.05 | 86 | 1023.1 |
| 20260905061505 | 18 | 18 | 3.2 | 6.4 | 0.00 | 0.03 | 0.05 | 86 | 1022.9 |
| 20260905061005 | 18 | 20 | 3.2 | 6.4 | 0.00 | 0.03 | 0.05 | 86 | 1023.0 |
| 20260905060504 | 18 | 10 | 3.2 | 6.4 | 0.00 | 0.03 | 0.05 | 87 | 1022.8 |
| 20260905060004 | 18 | 12 | 3.2 | 6.4 | 0.00 | 0.03 | 0.05 | 87 | 1022.8 |
| 20260905055504 | 18 | 18 | 3.2 | 6.4 | 0.00 | 0.03 | 0.05 | 87 | 1022.6 |
| 20260905055005 | 18 | 30 | 3.2 | 4.8 | 0.00 | 0.03 | 0.05 | 87 | 1022.5 |
| 20260905054504 | 18 | 35 | 3.2 | 4.8 | 0.00 | 0.03 | 0.05 | 87 | 1022.5 |
| 20260905054004 | 18 | 37 | 3.2 | 4.8 | 0.00 | 0.03 | 0.05 | 88 | 1022.4 |
| 20260905053504 | 18 | 54 | 1.6 | 4.8 | 0.00 | 0.03 | 0.05 | 88 | 1022.2 |
| 20260905052505 | 18 | 58 | 3.2 | 8.0 | 0.00 | 0.03 | 0.05 | 86 | 1022.4 |
| 20260905052004 | 18 | 62 | 3.2 | 8.0 | 0.00 | 0.03 | 0.05 | 86 | 1022.5 |
| 20260905051004 | 18 | 63 | 3.2 | 6.4 | 0.03 | 0.03 | 0.05 | 84 | 1022.4 |
| 20260905050005 | 18 | 81 | 1.6 | 4.8 | 0.05 | 0.03 | 0.05 | 84 | 1022.3 |
| 20260905045504 | 18 | 57 | 3.2 | 8.0 | 0.05 | 0.03 | 0.05 | 84 | 1022.2 |
| 20260905045004 | 18 | 47 | 3.2 | 8.0 | 0.05 | 0.03 | 0.05 | 86 | 1022.3 |
| 20260905044504 | 18 | 52 | 3.2 | 4.8 | 0.05 | 0.03 | 0.05 | 86 | 1022.3 |
| 20260905044004 | 18 | 42 | 3.2 | 4.8 | 0.05 | 0.03 | 0.05 | 83 | 1021.9 |
| 20260905043505 | 18 | 35 | 3.2 | 6.4 | 0.05 | 0.03 | 0.05 | 83 | 1021.8 |
| 20260905042505 | 18 | 68 | 3.2 | 4.8 | 0.03 | 0.03 | 0.03 | 81 | 1021.5 |
| 20260905041504 | 18 | 75 | 0.0 | 3.2 | 0.03 | 0.03 | 0.03 | 81 | 1021.4 |
| 20260905040504 | 18 | 57 | 1.6 | 6.4 | 0.00 | 0.00 | 0.00 | 78 | 1021.7 |
| 20260905040004 | 18 | 58 | 3.2 | 6.4 | 0.00 | 0.00 | 0.00 | 77 | 1021.6 |
| 20260905035504 | 18 | 50 | 3.2 | 6.4 | 0.00 | 0.00 | 0.00 | 76 | 1021.4 |
| 20260905035004 | 18 | 70 | 1.6 | 3.2 | 0.00 | 0.00 | 0.00 | 76 | 1021.3 |
| 20260905034504 | 18 | 107 | 1.6 | 3.2 | 0.00 | 0.00 | 0.00 | 76 | 1021.3 |
| 20260905034004 | 18 | 112 | 0.0 | 3.2 | 0.00 | 0.00 | 0.00 | 76 | 1021.5 |
| 20260905033505 | 18 | 97 | 1.6 | 3.2 | 0.00 | 0.00 | 0.00 | 76 | 1021.4 |
| 20260905033004 | 18 | 87 | 1.6 | 3.2 | 0.00 | 0.00 | 0.00 | 76 | 1021.4 |
| 20260905032504 | 18 | 86 | 1.6 | 3.2 | 0.00 | 0.00 | 0.00 | 75 | 1021.4 |
| 20260905032004 | 18 | 94 | 1.6 | 4.8 | 0.00 | 0.00 | 0.00 | 75 | 1021.4 |
| 20260905031505 | 18 | 87 | 1.6 | 4.8 | 0.00 | 0.00 | 0.00 | 75 | 1021.3 |
| 20260905030504 | 18 | 96 | 1.6 | 6.4 | 0.00 | 0.00 | 0.00 | 75 | 1021.3 |
| 20260905030005 | 18 | 111 | 3.2 | 8.0 | 0.00 | 0.00 | 0.00 | 75 | 1021.3 |
| 20260905025504 | 18 | 106 | 3.2 | 8.0 | 0.00 | 0.00 | 0.00 | 75 | 1021.2 |
| 20260905025004 | 18 | 85 | 1.6 | 3.2 | 0.00 | 0.00 | 0.00 | 74 | 1021.1 |
| 20260905024504 | 18 | 73 | 1.6 | 3.2 | 0.00 | 0.00 | 0.00 | 74 | 1021.1 |
| 20260905023504 | 18 | 68 | 3.2 | 6.4 | 0.00 | 0.00 | 0.00 | 74 | 1020.9 |
| 20260905023004 | 18 | 67 | 3.2 | 6.4 | 0.00 | 0.00 | 0.00 | 74 | 1021.2 |
| 20260905022504 | 18 | 65 | 4.8 | 6.4 | 0.00 | 0.00 | 0.00 | 74 | 1021.0 |
| 20260905022004 | 18 | 69 | 3.2 | 6.4 | 0.00 | 0.00 | 0.00 | 73 | 1021.1 |
| 20260905021504 | 18 | 75 | 3.2 | 6.4 | 0.00 | 0.00 | 0.00 | 73 | 1021.1 |
| 20260905021004 | 19 | 85 | 3.2 | 4.8 | 0.00 | 0.00 | 0.00 | 73 | 1021.0 |
| 20260905020504 | 19 | 93 | 1.6 | 3.2 | 0.00 | 0.00 | 0.00 | 73 | 1020.9 |
| 20260905020004 | 19 | 86 | 1.6 | 3.2 | 0.00 | 0.00 | 0.00 | 73 | 1021.1 |
| 20260905015503 | 19 | 79 | 1.6 | 4.8 | 0.00 | 0.00 | 0.00 | 73 | 1020.9 |
| 20260905015004 | 19 | 73 | 3.2 | 4.8 | 0.00 | 0.00 | 0.00 | 72 | 1021.1 |
| 20260905014505 | 19 | 80 | 3.2 | 4.8 | 0.00 | 0.00 | 0.00 | 72 | 1021.1 |
| 20260905014004 | 19 | 77 | 3.2 | 4.8 | 0.00 | 0.00 | 0.00 | 72 | 1021.1 |
| 20260905013504 | 19 | 78 | 1.6 | 4.8 | 0.00 | 0.00 | 0.00 | 72 | 1021.0 |
| 20260905013004 | 19 | 80 | 3.2 | 6.4 | 0.00 | 0.00 | 0.00 | 72 | 1021.0 |
| 20260905012504 | 19 | 68 | 3.2 | 6.4 | 0.00 | 0.00 | 0.00 | 72 | 1020.9 |